Home   Weather   San Antonio   Past weeks

Flag for USA Past Weather in San Antonio, Texas, USA — Yesterday and Last 2 Weeks

Now
78 °F

Partly sunny.


Feels Like: 79 °F
Forecast: 57 / 79 °F
Wind: 21 mph from Northwest

Location: San Antonio International Airport

Current Time: Apr 29, 2017 at 8:50:51 pm

Latest Report: Apr 29, 2017 at 7:51 pm


Visibility: 10 mi

Pressure: 29.52 "Hg

Humidity: 46%

Dew Point: 56 °F

Location of San AntonioLocation

Past Weather in San Antonio — Graph

°F

San Antonio Temperature Yesterday

Maximum temperature yesterday: 92 °F (at 4:51 pm)
Minimum temperature yesterday: 70 °F (at 12:42 am)
Average temperature yesterday: 79 °F

High & Low Weather Summary for the Past Weeks

 TemperatureHumidityPressure
High92 °F (Apr 28, 4:51 pm)94% (Apr 17, 10:51 pm)30.17 "Hg (Apr 17, 10:51 pm)
Low50 °F (Apr 24, 6:51 am)14% (Apr 26, 4:51 pm)29.40 "Hg (Apr 26, 4:51 am)
Average73 °F68%29.83 "Hg
* Reported Apr 14 6:51 pm — Apr 29 6:51 pm, San Antonio, Weather by CustomWeather, © 2017

Note: Actual official high and low records may vary slightly from our data, if they occured in-between our weather recording intervals... More about our weather records

Advertising

San Antonio Weather History for the Previous 24 Hours

Scroll right to see more
 ConditionsComfort  
Time TempWeatherWind HumidityBarometerVisibility
6:51 pm
Sat, Apr 29
88 °FPartly sunny.9 mph52%29.47 "Hg9 mi
5:51 pm90 °FPartly sunny.8 mph50%29.46 "Hg9 mi
4:51 pm90 °FBroken clouds.6 mph52%29.46 "Hg9 mi
3:51 pm89 °FBroken clouds.8 mph53%29.46 "Hg9 mi
2:51 pm88 °FBroken clouds.9 mph55%29.49 "Hg9 mi
1:51 pm87 °FPartly sunny.13 mph57%29.51 "Hg9 mi
12:51 pm86 °FPartly sunny.16 mph59%29.52 "Hg9 mi
11:51 am85 °FScattered clouds.20 mph63%29.53 "Hg10 mi
10:51 am83 °FBroken clouds.20 mph65%29.54 "Hg9 mi
9:51 am80 °FBroken clouds.14 mph71%29.55 "Hg8 mi
9:34 am79 °FBroken clouds.18 mph72%29.61 "Hg8 mi
8:51 am77 °FMostly cloudy.16 mph77%29.58 "Hg8 mi
7:51 am77 °FMostly cloudy.16 mph79%29.57 "Hg7 mi
6:51 am76 °FMostly cloudy.14 mph82%29.54 "Hg8 mi
5:51 am76 °FOvercast.13 mph82%29.52 "Hg10 mi
4:51 am76 °FMostly cloudy.14 mph80%29.53 "Hg10 mi
3:51 am76 °FMostly cloudy.14 mph82%29.54 "Hg10 mi
2:51 am76 °FPassing clouds.15 mph82%29.55 "Hg10 mi
1:51 am76 °FPassing clouds.16 mph82%29.55 "Hg10 mi
12:51 am76 °FPassing clouds.14 mph85%29.56 "Hg10 mi
11:51 pm
Fri, Apr 28
76 °FPassing clouds.20 mph82%29.55 "Hg10 mi
10:51 pm78 °FPassing clouds.20 mph79%29.54 "Hg10 mi
9:51 pm80 °FPassing clouds.18 mph67%29.52 "Hg10 mi
8:51 pm84 °FPassing clouds.14 mph65%29.49 "Hg10 mi
Weather by CustomWeather, © 2017

See weather overviewHow to use our weather pages